Simultaneous Nadir Overpasses (SNOs) Predictions

Prediction of SNOs between GOES-15 and NPP Satellite Orbit:

Table of predicted SNOs for the next 14.0 days since TLE Epoch: 3/13/2015
Index Date Time (GOES-15) GOES-15 Lat,Lon NPP Lat,Lon Distance(km) Time Diff (sec)
1 03/13/2015 22:17:35 0.01,-135.20 0.86,-131.44 428.55 80
2 03/15/2015 10:39:20 -0.01,-135.17 0.36,-136.70 175.66 80
3 03/16/2015 10:17:54 -0.01,-135.14 -0.66,-132.17 337.38 80
4 03/17/2015 22:39:49 0.00,-135.08 -0.54,-137.47 273.23 80
5 03/18/2015 22:23:43 0.01,-135.05 0.49,-132.95 239.94 80
6 03/20/2015 10:45:28 -0.00,-135.01 0.73,-138.21 364.50 80
7 03/21/2015 10:24:03 -0.01,-134.98 -0.30,-133.68 147.93 80
8 03/22/2015 22:45:57 0.00,-134.90 -0.89,-138.98 464.27 80
9 03/23/2015 22:29:51
